Flight Track Log - Related Links

Times and Time Zones

All times are in EDT time to prevent confusion due to time zone crossing. See the N242MB flight status page for this flight to view local times or setup timezone preferences in your user account.

Time Position Orientation Groundspeed Altitude Reporting Facility
EDT Latitude Longitude Course Direction KTS MPH feet Rate Location/Type
Mon 05:57:00 PM 35.8723 -80.0598 204° Southwest  Level FlightAware Approximate
Mon 05:58:00 PM 35.8396 -80.0773 204° Southwest  Level FlightAware Approximate
Mon 05:58:17 PM 35.7806 -80.1122 203° Southwest 160 184 3,900  Level Atlanta Center
Mon 05:59:00 PM 35.8069 -80.0949 204° Southwest  Level FlightAware Approximate
Mon 05:59:00 PM 35.7519 -80.1264 202° Southwest 158 182 3,900  Level Atlanta Center
Mon 06:00:00 PM 35.7742 -80.1124 204° Southwest  Level FlightAware Approximate
Mon 06:00:01 PM 35.7131 -80.1486 205° Southwest 157 181 4,000  Level Atlanta Center
Mon 06:01:00 PM 35.7415 -80.1300 204° Southwest  Level FlightAware Approximate
Mon 06:01:01 PM 35.6739 -80.1683 202° Southwest 152 175 4,000  Level Atlanta Center
Mon 06:02:00 PM 35.7088 -80.1475 203° Southwest  Level FlightAware Approximate
Mon 06:02:02 PM 35.6350 -80.1906 205° Southwest 155 178 4,000  Level Atlanta Center
Mon 06:03:00 PM 35.6761 -80.1649 203° Southwest  Level FlightAware Approximate
Mon 06:03:03 PM 35.5919 -80.2156 205° Southwest 155 178 4,000  Level Atlanta Center
Mon 06:04:04 PM 35.5531 -80.2353 202° Southwest 154 177 4,000  Level Atlanta Center
Mon 06:05:05 PM 35.5142 -80.2600 207° Southwest 154 177 4,000  Level Atlanta Center
Mon 06:06:00 PM 35.4792 -80.2769 202° Southwest 152 175 4,000  Level Atlanta Center
Mon 06:07:01 PM 35.4403 -80.3017 207° Southwest 153 176 4,000  Level Atlanta Center
Mon 06:08:01 PM 35.4011 -80.3214 202° Southwest 151 174 4,000 -298 Level Atlanta Center
Mon 06:09:02 PM 35.3622 -80.3461 207° Southwest 160 184 3,400 -590 Descending Atlanta Center
Mon 06:10:03 PM 35.3131 -80.3711 203° Southwest 175 201 2,800 -541 Descending Atlanta Center
Mon 06:11:04 PM 35.2719 -80.3908 201° Southwest 167 192 2,300 -492 Descending Atlanta Center

Login

Don't have an account? Register now (free) for customized features, flight alerts, and more!